Regional Weather Roundup
Issued by NWS

Home | Current Version | Previous Version | Graphics & Text | Print | Product List | Glossary On
Versions: 1 2 3 4 5 6 7 8 9 10 11 12 13 14 15 16 17 18 19 20 21 22 23 24 25 26 27 28 29 30 31 32 33 34 35 36 37 38 39 40 41 42 43 44 45 46 47 48 49 50
225
ASUS43 KLSX 171407
RWRMO

WEATHER SUMMARY FOR MISSOURI
NATIONAL WEATHER SERVICE SPRINGFIELD MO
800 AM CST SUN DEC 17 2017

NOTE: "FAIR" INDICATES FEW OR NO CLOUDS BELOW 12,000 FEET WITH NO
       SIGNIFICANT WEATHER AND/OR OBSTRUCTIONS TO VISIBILITY.
       CURRENT SKY AND/OR WEATHER CONDITIONS ARE NOT AVAILABLE FOR
       CHILLICOTHE AND FARMINGTON.

MOZ001>031-035>038-043-044-053-054-171500-
...NORTHERN AND WESTERN MISSOURI...

CITY           SKY/WX    TMP DP  RH WIND       PRES   REMARKS
KANSAS CTY INT LGT RAIN  42  41  96 S8        30.01R FOG
KANSAS C DTWN  LGT RAIN  45  42  89 S7        30.02R
LEE`S SUMMIT   LGT RAIN  43  43 100 S10       30.02S
ST JOSEPH      LGT RAIN  41  41 100 S6        30.00S FOG
CHILLICOTHE      N/A     42  37  82 S3        30.04R
KIRKSVILLE     MOCLDY    44  31  60 SW7       30.02R

$$
MOZ066>068-077>081-088>096-101>105-171500-
...SOUTHWEST MISSOURI...

CITY           SKY/WX    TMP DP  RH WIND       PRES   REMARKS
SPRINGFIELD    LGT RAIN  42  41  96 S5        30.06R FOG
JOPLIN         CLOUDY    43  43 100 S5        30.06R FOG
BRANSON        FOG       41  41 100 S5        30.07R VSB 3/4

$$
MOZ032>034-039>042-045>050-055>058-069>072-171500-
...CENTRAL MISSOURI...

CITY           SKY/WX    TMP DP  RH WIND       PRES   REMARKS
COLUMBIA       LGT RAIN  42  37  82 SW8       30.08R
JEFFERSON CITY LGT RAIN  43  37  79 NW5       30.09R
ROLLA          LGT RAIN  43  37  79 W10       30.07R
SEDALIA        CLOUDY    43  43 100 SW7       30.06S
WHITEMAN AFB   LGT RAIN  41  41 100 SW7       30.01R
WARRENSBURG    LGT RAIN  41  39  93 S6        30.05R
OSAGE BEACH    LGT RAIN  42  41  96 CALM      30.07F

$$
MOZ051-052-059>065-171500-
...EAST CENTRAL MISSOURI...

CITY           SKY/WX    TMP DP  RH WIND       PRES   REMARKS
ST LOUIS INTL  CLOUDY    45  33  63 SE5       30.06R
SPIRIT OF STL  CLOUDY    47  31  53 CALM      30.04S
ST CHARLES     CLOUDY    42  30  62 E6        30.06R

$$
MOZ072>076-082>087-097>100-106>115-171500-
...SOUTH CENTRAL AND SOUTHEAST MISSOURI...

CITY           SKY/WX    TMP DP  RH WIND       PRES   REMARKS
CAPE GIRARDEAU LGT RAIN  41  39  93 CALM      30.12F
FARMINGTON     LGT RAIN  41  38  89 S5        30.08S
POPLAR BLUFF   LGT RAIN  42  42 100 MISG      30.13R FOG
WEST PLAINS    LGT RAIN  41  40  96 S5        30.08R FOG

$$



USA.gov is the U.S. government's official web portal to all federal, state and local government web resources and services.